Torna al catalogo

DELTA 1 DEB

AttivoSSO
NORAD 21473·DEBRIS·🇺🇸 United States

Lanciato Jun 12, 1975 da Vandenberg Space Force Base

Loading…

Prossimi Passaggi (prossime 24 ore)

TLE

AggiornatoSource: Space-Track

Epoca: Sep 14, 2026, 00:50 UTC

1 21473U 75052FH  26257.03531314  .00000429  00000-0  51233-3 0  9990
2 21473  99.9215  89.2698 0239742 103.3141  46.3286 13.61430496745356

Traccia DELTA 1 DEB in tempo reale con AllMySat

Download on the App Store